Location: Erfurt
(50.9688°N, 11.0193°E)
Time: 21:53:56
(UTC+02:00)

ISS - Visible Passes

Search period start: 22 May 2018 00:00
Search period end: 01 June 2018 00:00
Orbit: 402 x 407 km, 51.6° (Epoch: 23 May)

Date Brightness Start Highest point End Pass type
(mag) Time Alt. Az. Time Alt. Az. Time Alt. Az.
22 May -3.8 01:29:47 10° W 01:33:04 78° N 01:36:20 10° E visible
22 May -3.7 03:06:20 10° W 03:09:31 51° SSW 03:12:42 10° SE visible
22 May -3.8 23:01:12 10° WSW 23:04:25 55° SSE 23:07:38 10° E visible
23 May -3.8 00:37:36 10° W 00:40:53 77° N 00:44:09 10° E visible
23 May -4.0 02:14:09 10° WNW 02:17:25 71° SSW 02:20:40 10° ESE visible
23 May -2.5 03:51:01 10° W 03:53:31 20° SW 03:56:00 10° SSE visible
23 May -3.3 22:09:16 10° SW 22:12:20 38° SSE 22:15:25 10° E visible
23 May -3.8 23:45:25 10° W 23:48:41 84° NNW 23:51:59 10° E visible
24 May -4.0 01:21:58 10° W 01:25:15 89° S 01:27:56 14° ESE visible
24 May -2.5 02:58:36 10° W 03:00:20 23° WSW 03:00:20 23° WSW visible
24 May -3.9 22:53:13 10° WSW 22:56:30 82° SSE 22:59:48 10° ENE visible
25 May -3.8 00:29:46 10° W 00:33:03 80° N 00:35:45 14° E visible
25 May -2.8 02:06:19 10° W 02:08:20 31° WSW 02:08:20 31° WSW visible
25 May -3.8 22:01:06 10° WSW 22:04:21 63° SSE 22:07:35 10° E visible
25 May -3.7 23:37:33 10° W 23:40:51 77° N 23:44:07 10° E visible
26 May -3.9 01:14:05 10° W 01:17:17 63° SSW 01:17:17 63° SSW visible
26 May -3.7 22:45:19 10° W 22:48:36 80° N 22:51:53 10° E visible
27 May -4.0 00:21:52 10° WNW 00:25:09 83° SSW 00:26:28 33° ESE visible
27 May -1.4 01:58:34 10° W 01:59:05 13° W 01:59:05 13° W visible
27 May -3.8 21:53:05 10° WSW 21:56:23 88° SSE 21:59:40 10° E visible
27 May -3.8 23:29:38 10° W 23:32:56 83° N 23:35:44 13° E visible
28 May -2.8 01:06:12 10° W 01:08:22 31° WSW 01:08:22 31° WSW visible
28 May -3.7 22:37:23 10° W 22:40:40 77° N 22:43:57 10° E visible
29 May -3.8 00:13:55 10° W 00:17:09 56° SSW 00:17:43 47° SSE visible
29 May -3.9 23:21:39 10° WNW 23:24:56 76° SSW 23:27:05 20° ESE visible
30 May -1.8 00:58:27 10° W 00:59:43 17° WSW 00:59:43 17° WSW visible
30 May -3.8 22:29:24 10° W 22:32:41 87° N 22:35:57 10° E visible
31 May -3.1 00:05:59 10° W 00:09:00 34° SSW 00:09:07 34° SSW visible
31 May -3.6 23:13:38 10° W 23:16:50 50° SSW 23:18:33 23° SE visible
